Back to catalog

STARLINK-11129

AliveCommunicationsVLEO
NORAD 60038·PAYLOAD·🇺🇸 United States

Launched Jun 8, 2024 from Vandenberg Space Force Base

Loading…

Next Passes (next 24 hours)

TLE

FreshSource: CelesTrak SupGP

Epoch: Sep 14, 2026, 15:10 UTC

1 60038C 24112A   26257.63243056 -.00039928  00000+0 -32895-3 0  2577
2 60038  53.1578  55.1789 0001019  93.7794 212.8204 15.69725762    13

Track STARLINK-11129 in real time with AllMySat

Download on the App Store